This is the latest recevied weather packets stored in our database for station/object OE9FWV-10. If no packets are shown the sender has not sent any weather packets the latest 10 day(s).
| Time | Temp. | Humidity | Pressure | Rain* | Wind** | Luminosity | Snow |
|---|---|---|---|---|---|---|---|
| 1787722992 | 24.44° C | 40% | 1020.8 hPa | - | - | - | - |
| 1787722091 | 25° C | 40% | 1020.7 hPa | - | - | - | - |
| 1787721190 | 23.89° C | 40% | 1020.7 hPa | - | - | - | - |
| 1787720290 | 25° C | 40% | 1020.6 hPa | - | - | - | - |
| 1787719389 | 23.89° C | 41% | 1020.4 hPa | - | - | - | - |
| 1787718489 | 24.44° C | 41% | 1020.5 hPa | - | - | - | - |
| 1787717588 | 25° C | 39% | 1020.3 hPa | - | - | - | - |
| 1787716687 | 23.89° C | 41% | 1020.3 hPa | - | - | - | - |
| 1787715786 | 23.89° C | 40% | 1020.4 hPa | - | - | - | - |
| 1787714885 | 23.33° C | 42% | 1020.1 hPa | - | - | - | - |
| 1787713984 | 24.44° C | 40% | 1020.1 hPa | - | - | - | - |
| 1787713084 | 24.44° C | 40% | 1020.1 hPa | - | - | - | - |
| 1787712183 | 24.44° C | 40% | 1020.1 hPa | - | - | - | - |
| 1787711282 | 24.44° C | 40% | 1020.1 hPa | - | - | - | - |
| 1787710382 | 25° C | 39% | 1020 hPa | - | - | - | - |
| 1787709481 | 25.56° C | 37% | 1020 hPa | - | - | - | - |
| 1787708580 | 26.67° C | 36% | 1020 hPa | - | - | - | - |
| 1787707680 | 26.11° C | 37% | 1019.9 hPa | - | - | - | - |
| 1787706779 | 27.78° C | 35% | 1019.7 hPa | - | - | - | - |
| 1787705879 | 26.67° C | 37% | 1019.6 hPa | - | - | - | - |
| 1787704979 | 27.78° C | 36% | 1019.5 hPa | - | - | - | - |
| 1787704078 | 26.11° C | 37% | 1019.6 hPa | - | - | - | - |
| 1787703177 | 26.11° C | 38% | 1019.7 hPa | - | - | - | - |
| 1787702277 | 25° C | 38% | 1019.6 hPa | - | - | - | - |
| 1787701376 | 26.11° C | 38% | 1019.6 hPa | - | - | - | - |
* Rain since midnight (hover to see other rain measurements)
** Current wind speed in m/s (hover to see current wind gust speed)